Home   Weather   Denmark   Næstved   Past weeks
Flag for Denmark

Past Weather in Næstved, Denmark — Yesterday and Last 2 Weeks

Currently: 59 °F. Cool. (Weather station: Koebenhavn / Roskilde, Denmark). See more current weather

Past Weather in Næstved — Graph

°F

Næstved Temperature Yesterday

Maximum temperature yesterday: 63 °F (at 10:50 am)
Minimum temperature yesterday: 57 °F (at 12:20 am)
Average temperature yesterday: 59 °F

High & Low Weather Summary for the Past Weeks

 TemperatureHumidityPressure
High66 °F (Sep 16, 3:50 pm)100% (Sep 15, 9:50 pm)30.30 "Hg (Sep 15, 9:50 pm)
Low41 °F (Sep 21, 12:50 am)48% (Sep 19, 1:20 pm)29.47 "Hg (Sep 23, 4:50 pm)
Average56 °F82%30.01 "Hg
* Reported Sep 13 5:20 pm — Sep 28 5:20 pm, Næstved. Weather by CustomWeather, © 2021

Note: Actual official high and low records may vary slightly from our data, if they occured in-between our weather recording intervals... More about our weather records

Næstved Weather History for the Previous 24 Hours

Scroll right to see more
 ConditionsComfort  
Time TempWeatherWind HumidityBarometerVisibility
5:20 pm
Tue, Sep 28
61 °FRefreshingly cool.6 mph59%30.18 "HgN/A
4:50 pm61 °FCool.5 mph63%30.18 "HgN/A
4:20 pm61 °FRefreshingly cool.7 mph59%30.18 "HgN/A
3:50 pm61 °FRefreshingly cool.8 mph55%30.18 "HgN/A
3:20 pm61 °FCool.9 mph63%30.18 "HgN/A
2:50 pm61 °FCool.10 mph63%30.18 "HgN/A
2:20 pm61 °FCool.10 mph63%30.18 "HgN/A
1:50 pm61 °FPassing clouds.10 mph59%30.18 "HgN/A
1:20 pm61 °FPartly sunny.10 mph72%30.18 "HgN/A
12:50 pm59 °FBroken clouds.9 mph72%30.18 "HgN/A
12:20 pm59 °FPartly sunny.12 mph77%30.18 "HgN/A
11:50 am59 °FScattered clouds.12 mph72%30.15 "HgN/A
11:20 am61 °FPassing clouds.12 mph77%30.15 "HgN/A
10:50 am59 °FPartly sunny.13 mph77%30.15 "HgN/A
10:20 am59 °FPassing clouds.10 mph82%30.15 "HgN/A
9:50 am57 °FCool.12 mph82%30.12 "HgN/A
9:20 am57 °FCool.9 mph88%30.12 "HgN/A
8:50 am55 °FPassing clouds.7 mph94%30.12 "HgN/A
8:20 am55 °FScattered clouds.7 mph94%30.09 "HgN/A
7:50 am55 °FMore clouds than sun.9 mph94%30.09 "HgN/A
7:20 am57 °FCloudy.8 mph94%30.09 "HgN/A
6:50 am57 °FLow clouds.7 mph94%30.07 "HgN/A
6:20 am57 °FPassing clouds.8 mph94%30.07 "HgN/A
5:50 am57 °FLow clouds.8 mph94%30.07 "HgN/A
5:20 am57 °FLight rain. Passing clouds.7 mph94%30.04 "HgN/A
4:50 am57 °FLight rain. Passing clouds.7 mph94%30.04 "HgN/A
4:20 am57 °FLight rain. Passing clouds.9 mph94%30.04 "HgN/A
3:50 am61 °FLight rain. Mostly cloudy.9 mph94%30.04 "Hg4 mi
3:20 am61 °FHeavy rain. Mostly cloudy.7 mph100%30.01 "Hg3 mi
2:50 am61 °FHeavy rain. Low clouds.3 mph100%30.01 "Hg1 mi
2:20 am61 °FFog.7 mph100%30.01 "Hg2 mi
1:50 am61 °FFog.7 mph94%30.01 "Hg2 mi
1:20 am61 °FFog.8 mph94%30.01 "Hg2 mi
12:50 am61 °FFog.9 mph94%30.01 "Hg3 mi
12:20 am61 °FFog.7 mph94%30.01 "Hg3 mi
11:50 pm
Mon, Sep 27
59 °FFog.9 mph100%30.01 "Hg2 mi
11:20 pm59 °FFog.9 mph100%30.01 "Hg3 mi
10:50 pm59 °FPassing clouds.13 mph100%30.01 "Hg4 mi
10:20 pm59 °FLow clouds.13 mph100%30.01 "Hg3 mi
9:50 pm59 °FMostly cloudy.14 mph94%30.01 "Hg4 mi
9:20 pm59 °FPassing clouds.13 mph94%30.01 "HgN/A
8:50 pm59 °FMostly cloudy.14 mph94%30.01 "HgN/A
8:20 pm59 °FMostly cloudy.15 mph94%30.01 "HgN/A
7:50 pm59 °FOvercast.16 mph94%30.01 "HgN/A
7:20 pm59 °FOvercast.15 mph94%30.01 "HgN/A
6:50 pm59 °FOvercast.16 mph88%30.01 "HgN/A
6:20 pm59 °FOvercast.16 mph88%30.01 "HgN/A
Weather by CustomWeather, © 2021

See weather overview